"datetime","temp","dp","rain_mm","uv","solar","mb","wind_mph","gust_mph","windchill","rh"
"2023-06-26 00:00:00",15.2,11.8,0.0,0.0,0,1014.7,1,1,"",80
"2023-06-26 00:01:00",15.2,11.8,0.0,0.0,0,1014.8,1,2,"",80
"2023-06-26 00:02:00",15.2,11.8,0.0,0.0,0,1014.8,2,3,"",80
"2023-06-26 00:03:00",15.1,11.7,0.0,0.0,0,1014.8,1,1,"",80
"2023-06-26 00:04:00",15.1,11.9,0.0,0.0,0,1014.8,1,2,"",81
"2023-06-26 00:05:00",15.1,11.9,0.0,0.0,0,1014.7,0,1,"",81
"2023-06-26 00:06:00",15.1,11.7,0.0,0.0,0,1014.8,1,2,"",80
"2023-06-26 00:07:00",15.0,11.8,0.0,0.0,0,1014.8,1,2,"",81
"2023-06-26 00:08:00",15.0,11.8,0.0,0.0,0,1014.8,1,2,"",81
"2023-06-26 00:09:00",15.0,11.8,0.0,0.0,0,1014.8,1,2,"",81
"2023-06-26 00:10:00",14.9,11.7,0.0,0.0,0,1014.8,1,3,"",81
"2023-06-26 00:11:00",14.9,11.7,0.0,0.0,0,1014.8,0,1,"",81
"2023-06-26 00:12:00",14.8,11.6,0.0,0.0,0,1014.8,1,2,"",81
"2023-06-26 00:13:00",14.8,11.6,0.0,0.0,0,1014.8,0,1,"",81
"2023-06-26 00:14:00",14.8,11.8,0.0,0.0,0,1014.8,0,1,"",82
"2023-06-26 00:15:00",14.7,11.7,0.0,0.0,0,1014.8,0,2,"",82
"2023-06-26 00:16:00",14.7,11.7,0.0,0.0,0,1014.8,0,1,"",82
"2023-06-26 00:17:00",14.7,11.7,0.0,0.0,0,1014.8,1,2,"",82
"2023-06-26 00:18:00",14.7,11.7,0.0,0.0,0,1014.8,0,1,"",82
"2023-06-26 00:19:00",14.7,11.7,0.0,0.0,0,1014.8,0,1,"",82
"2023-06-26 00:20:00",14.7,11.7,0.0,0.0,0,1014.9,1,2,"",82
"2023-06-26 00:21:00",14.7,11.7,0.0,0.0,0,1014.9,1,1,"",82
"2023-06-26 00:22:00",14.7,11.7,0.0,0.0,0,1014.9,1,2,"",82
"2023-06-26 00:23:00",14.7,11.7,0.0,0.0,0,1014.9,0,1,"",82
"2023-06-26 00:24:00",14.6,11.7,0.0,0.0,0,1015.0,1,3,"",83
"2023-06-26 00:25:00",14.6,11.7,0.0,0.0,0,1014.9,1,3,"",83
"2023-06-26 00:26:00",14.6,11.7,0.0,0.0,0,1014.9,0,1,"",83
"2023-06-26 00:27:00",14.6,11.7,0.0,0.0,0,1015.0,1,2,"",83
"2023-06-26 00:28:00",14.6,11.7,0.0,0.0,0,1014.9,1,2,"",83
"2023-06-26 00:29:00",14.6,11.7,0.0,0.0,0,1015.0,1,2,"",83
"2023-06-26 00:30:00",14.6,11.7,0.0,0.0,0,1014.9,0,2,"",83
"2023-06-26 00:31:00",14.6,11.7,0.0,0.0,0,1015.0,0,1,"",83
"2023-06-26 00:32:00",14.6,11.7,0.0,0.0,0,1015.0,0,2,"",83
"2023-06-26 00:33:00",14.6,11.7,0.0,0.0,0,1015.0,1,2,"",83
"2023-06-26 00:34:00",14.5,11.6,0.0,0.0,0,1014.9,0,2,"",83
"2023-06-26 00:35:00",14.5,11.6,0.0,0.0,0,1015.0,1,2,"",83
"2023-06-26 00:36:00",14.5,11.6,0.0,0.0,0,1015.0,1,2,"",83
"2023-06-26 00:37:00",14.4,11.5,0.0,0.0,0,1014.9,1,2,"",83
"2023-06-26 00:38:00",14.4,11.7,0.0,0.0,0,1014.9,1,2,"",84
"2023-06-26 00:39:00",14.4,11.7,0.0,0.0,0,1015.0,1,3,"",84
"2023-06-26 00:40:00",14.3,11.6,0.0,0.0,0,1015.0,0,1,"",84
"2023-06-26 00:41:00",14.4,11.7,0.0,0.0,0,1015.0,1,2,"",84
"2023-06-26 00:42:00",14.3,11.6,0.0,0.0,0,1015.0,0,1,"",84
"2023-06-26 00:43:00",14.3,11.6,0.0,0.0,0,1015.0,0,1,"",84
"2023-06-26 00:44:00",14.3,11.6,0.0,0.0,0,1015.0,0,1,"",84
"2023-06-26 00:45:00",14.3,11.6,0.0,0.0,0,1015.0,0,1,"",84
"2023-06-26 00:46:00",14.3,11.8,0.0,0.0,0,1015.0,1,1,"",85
"2023-06-26 00:47:00",14.3,11.8,0.0,0.0,0,1015.0,1,2,"",85
"2023-06-26 00:48:00",14.3,11.8,0.0,0.0,0,1015.0,1,2,"",85
"2023-06-26 00:49:00",14.3,11.8,0.0,0.0,0,1015.0,1,2,"",85
"2023-06-26 00:50:00",14.3,11.8,0.0,0.0,0,1015.0,0,1,"",85
"2023-06-26 00:51:00",14.3,11.8,0.0,0.0,0,1015.0,0,2,"",85
"2023-06-26 00:52:00",14.2,11.7,0.0,0.0,0,1015.0,1,2,"",85
"2023-06-26 00:53:00",14.2,11.7,0.0,0.0,0,1015.0,0,1,"",85
"2023-06-26 00:54:00",14.2,11.7,0.0,0.0,0,1015.0,0,1,"",85
"2023-06-26 00:55:00",14.2,11.7,0.0,0.0,0,1015.0,0,1,"",85
"2023-06-26 00:56:00",14.2,11.7,0.0,0.0,0,1015.0,0,1,"",85
"2023-06-26 00:57:00",14.2,11.7,0.0,0.0,0,1015.1,0,2,"",85
"2023-06-26 00:58:00",14.2,11.7,0.0,0.0,0,1015.1,0,1,"",85
"2023-06-26 00:59:00",14.2,11.7,0.0,0.0,0,1015.1,0,2,"",85
"2023-06-26 01:00:00",14.1,11.6,0.0,0.0,0,1015.1,0,1,"",85
"2023-06-26 01:01:00",14.1,11.8,0.0,0.0,0,1015.1,1,2,"",86
"2023-06-26 01:02:00",14.1,11.8,0.0,0.0,0,1015.0,0,1,"",86
"2023-06-26 01:03:00",14.1,11.8,0.0,0.0,0,1015.1,1,2,"",86
"2023-06-26 01:04:00",14.2,11.9,0.0,0.0,0,1015.1,1,2,"",86
"2023-06-26 01:05:00",14.1,11.8,0.0,0.0,0,1015.1,0,1,"",86
"2023-06-26 01:06:00",14.1,11.8,0.0,0.0,0,1015.1,0,2,"",86
"2023-06-26 01:07:00",14.1,11.8,0.0,0.0,0,1015.1,0,1,"",86
"2023-06-26 01:08:00",14.1,11.8,0.0,0.0,0,1015.1,1,2,"",86
"2023-06-26 01:09:00",14.0,11.7,0.0,0.0,0,1015.1,1,2,"",86
"2023-06-26 01:10:00",14.0,11.7,0.0,0.0,0,1015.1,1,2,"",86
"2023-06-26 01:11:00",14.0,11.7,0.0,0.0,0,1015.1,1,1,"",86
"2023-06-26 01:12:00",14.0,11.7,0.0,0.0,0,1015.1,0,1,"",86
"2023-06-26 01:13:00",14.0,11.7,0.0,0.0,0,1015.1,0,1,"",86
"2023-06-26 01:14:00",14.0,11.7,0.0,0.0,0,1015.1,0,1,"",86
"2023-06-26 01:15:00",14.0,11.7,0.0,0.0,0,1015.1,0,1,"",86
"2023-06-26 01:16:00",14.0,11.7,0.0,0.0,0,1015.1,1,1,"",86
"2023-06-26 01:17:00",13.9,11.6,0.0,0.0,0,1015.1,0,1,"",86
"2023-06-26 01:18:00",14.0,11.7,0.0,0.0,0,1015.1,0,1,"",86
"2023-06-26 01:19:00",14.0,11.7,0.0,0.0,0,1015.1,1,1,"",86
"2023-06-26 01:20:00",14.0,11.7,0.0,0.0,0,1015.2,0,1,"",86
"2023-06-26 01:21:00",13.9,11.6,0.0,0.0,0,1015.2,0,1,"",86
"2023-06-26 01:22:00",14.0,11.7,0.0,0.0,0,1015.2,0,1,"",86
"2023-06-26 01:23:00",13.9,11.8,0.0,0.0,0,1015.2,0,0,"",87
"2023-06-26 01:24:00",13.9,11.6,0.0,0.0,0,1015.1,0,1,"",86
"2023-06-26 01:25:00",13.9,11.8,0.0,0.0,0,1015.1,1,2,"",87
"2023-06-26 01:26:00",13.9,11.8,0.0,0.0,0,1015.2,1,2,"",87
"2023-06-26 01:27:00",13.9,11.8,0.0,0.0,0,1015.2,0,1,"",87
"2023-06-26 01:28:00",13.9,11.8,0.0,0.0,0,1015.2,0,1,"",87
"2023-06-26 01:29:00",13.9,11.8,0.0,0.0,0,1015.2,0,1,"",87
"2023-06-26 01:30:00",13.9,11.8,0.0,0.0,0,1015.2,0,1,"",87
"2023-06-26 01:31:00",13.8,11.7,0.0,0.0,0,1015.2,0,1,"",87
"2023-06-26 01:32:00",13.8,11.7,0.0,0.0,0,1015.2,1,2,"",87
"2023-06-26 01:33:00",13.8,11.7,0.0,0.0,0,1015.3,1,2,"",87
"2023-06-26 01:34:00",13.8,11.7,0.0,0.0,0,1015.2,0,1,"",87
"2023-06-26 01:35:00",13.8,11.7,0.0,0.0,0,1015.3,1,1,"",87
"2023-06-26 01:36:00",13.8,11.7,0.0,0.0,0,1015.2,0,1,"",87
"2023-06-26 01:37:00",13.8,11.7,0.0,0.0,0,1015.2,1,1,"",87
"2023-06-26 01:38:00",13.7,11.6,0.0,0.0,0,1015.3,0,1,"",87
"2023-06-26 01:39:00",13.7,11.6,0.0,0.0,0,1015.3,0,1,"",87
"2023-06-26 01:40:00",13.7,11.6,0.0,0.0,0,1015.3,0,1,"",87
"2023-06-26 01:41:00",13.7,11.6,0.0,0.0,0,1015.3,0,1,"",87
"2023-06-26 01:42:00",13.7,11.6,0.0,0.0,0,1015.3,0,1,"",87
"2023-06-26 01:43:00",13.6,11.5,0.0,0.0,0,1015.3,0,1,"",87
"2023-06-26 01:44:00",13.6,11.5,0.0,0.0,0,1015.3,0,1,"",87
"2023-06-26 01:45:00",13.6,11.6,0.0,0.0,0,1015.4,0,1,"",88
"2023-06-26 01:46:00",13.5,11.6,0.0,0.0,0,1015.4,1,1,"",88
"2023-06-26 01:47:00",13.5,11.6,0.0,0.0,0,1015.3,0,1,"",88
"2023-06-26 01:48:00",13.4,11.5,0.0,0.0,0,1015.4,1,1,"",88
"2023-06-26 01:49:00",13.4,11.5,0.0,0.0,0,1015.4,0,1,"",88
"2023-06-26 01:50:00",13.4,11.5,0.0,0.0,0,1015.3,1,1,"",88
"2023-06-26 01:51:00",13.4,11.5,0.0,0.0,0,1015.4,0,1,"",88
"2023-06-26 01:52:00",13.4,11.5,0.0,0.0,0,1015.4,0,1,"",88
"2023-06-26 01:53:00",13.4,11.5,0.0,0.0,0,1015.4,1,1,"",88
"2023-06-26 01:54:00",13.3,11.4,0.0,0.0,0,1015.4,1,2,"",88
"2023-06-26 01:55:00",13.3,11.4,0.0,0.0,0,1015.4,0,1,"",88
"2023-06-26 01:56:00",13.3,11.4,0.0,0.0,0,1015.4,1,1,"",88
"2023-06-26 01:57:00",13.3,11.5,0.0,0.0,0,1015.4,1,2,"",89
"2023-06-26 01:58:00",13.3,11.4,0.0,0.0,0,1015.4,1,2,"",88
"2023-06-26 01:59:00",13.3,11.5,0.0,0.0,0,1015.4,1,1,"",89
"2023-06-26 02:00:00",13.2,11.4,0.0,0.0,0,1015.4,0,1,"",89
"2023-06-26 02:01:00",13.3,11.5,0.0,0.0,0,1015.4,0,1,"",89
"2023-06-26 02:02:00",13.2,11.4,0.0,0.0,0,1015.4,1,2,"",89
"2023-06-26 02:03:00",13.3,11.5,0.0,0.0,0,1015.4,1,2,"",89
"2023-06-26 02:04:00",13.2,11.4,0.0,0.0,0,1015.4,1,2,"",89
"2023-06-26 02:05:00",13.2,11.4,0.0,0.0,0,1015.4,1,1,"",89
"2023-06-26 02:06:00",13.1,11.3,0.0,0.0,0,1015.4,1,1,"",89
"2023-06-26 02:07:00",13.2,11.4,0.0,0.0,0,1015.4,1,2,"",89
"2023-06-26 02:08:00",13.2,11.4,0.0,0.0,0,1015.4,1,2,"",89
"2023-06-26 02:09:00",13.2,11.4,0.0,0.0,0,1015.4,0,1,"",89
"2023-06-26 02:10:00",13.2,11.4,0.0,0.0,0,1015.5,0,1,"",89
"2023-06-26 02:11:00",13.3,11.5,0.0,0.0,0,1015.5,1,2,"",89
"2023-06-26 02:12:00",13.3,11.5,0.0,0.0,0,1015.4,0,2,"",89
"2023-06-26 02:13:00",13.2,11.4,0.0,0.0,0,1015.5,0,0,"",89
"2023-06-26 02:14:00",13.3,11.5,0.0,0.0,0,1015.5,0,2,"",89
"2023-06-26 02:15:00",13.3,11.5,0.0,0.0,0,1015.5,0,2,"",89
"2023-06-26 02:16:00",13.3,11.5,0.0,0.0,0,1015.5,0,1,"",89
"2023-06-26 02:17:00",13.3,11.5,0.0,0.0,0,1015.5,1,2,"",89
"2023-06-26 02:18:00",13.3,11.5,0.0,0.0,0,1015.5,0,1,"",89
"2023-06-26 02:19:00",13.3,11.5,0.0,0.0,0,1015.5,0,1,"",89
"2023-06-26 02:20:00",13.3,11.5,0.0,0.0,0,1015.5,1,2,"",89
"2023-06-26 02:21:00",13.3,11.5,0.0,0.0,0,1015.5,0,1,"",89
"2023-06-26 02:22:00",13.3,11.5,0.0,0.0,0,1015.5,0,0,"",89
"2023-06-26 02:23:00",13.3,11.5,0.0,0.0,0,1015.6,0,2,"",89
"2023-06-26 02:24:00",13.3,11.5,0.0,0.0,0,1015.5,0,1,"",89
"2023-06-26 02:25:00",13.2,11.4,0.0,0.0,0,1015.5,0,1,"",89
"2023-06-26 02:26:00",13.2,11.4,0.0,0.0,0,1015.6,1,2,"",89
"2023-06-26 02:27:00",13.2,11.4,0.0,0.0,0,1015.5,0,1,"",89
"2023-06-26 02:28:00",13.2,11.4,0.0,0.0,0,1015.6,1,2,"",89
"2023-06-26 02:29:00",13.1,11.3,0.0,0.0,0,1015.6,0,1,"",89
"2023-06-26 02:30:00",13.1,11.3,0.0,0.0,0,1015.6,1,1,"",89
"2023-06-26 02:31:00",13.1,11.5,0.0,0.0,0,1015.6,0,2,"",90
"2023-06-26 02:32:00",13.1,11.5,0.0,0.0,0,1015.5,1,2,"",90
"2023-06-26 02:33:00",13.1,11.5,0.0,0.0,0,1015.6,1,2,"",90
"2023-06-26 02:34:00",13.1,11.5,0.0,0.0,0,1015.6,0,1,"",90
"2023-06-26 02:35:00",13.1,11.5,0.0,0.0,0,1015.5,1,2,"",90
"2023-06-26 02:36:00",13.1,11.5,0.0,0.0,0,1015.6,1,1,"",90
"2023-06-26 02:37:00",13.1,11.5,0.0,0.0,0,1015.6,0,1,"",90
"2023-06-26 02:38:00",13.1,11.5,0.0,0.0,0,1015.6,0,1,"",90
"2023-06-26 02:39:00",13.1,11.5,0.0,0.0,0,1015.5,0,1,"",90
"2023-06-26 02:40:00",13.1,11.5,0.0,0.0,0,1015.6,1,2,"",90
"2023-06-26 02:41:00",13.0,11.4,0.0,0.0,0,1015.6,1,1,"",90
"2023-06-26 02:42:00",12.9,11.3,0.0,0.0,0,1015.6,1,1,"",90
"2023-06-26 02:43:00",13.0,11.4,0.0,0.0,0,1015.6,0,2,"",90
"2023-06-26 02:44:00",13.0,11.4,0.0,0.0,0,1015.6,0,1,"",90
"2023-06-26 02:45:00",13.0,11.4,0.0,0.0,0,1015.6,0,1,"",90
"2023-06-26 02:46:00",13.0,11.4,0.0,0.0,0,1015.7,0,0,"",90
"2023-06-26 02:47:00",13.1,11.5,0.0,0.0,0,1015.7,0,2,"",90
"2023-06-26 02:48:00",13.0,11.4,0.0,0.0,0,1015.7,0,1,"",90
"2023-06-26 02:49:00",12.9,11.3,0.0,0.0,0,1015.7,0,1,"",90
"2023-06-26 02:50:00",12.9,11.3,0.0,0.0,0,1015.7,0,1,"",90
"2023-06-26 02:51:00",12.9,11.3,0.0,0.0,0,1015.7,0,1,"",90
"2023-06-26 02:52:00",12.9,11.3,0.0,0.0,0,1015.7,1,1,"",90
"2023-06-26 02:53:00",12.9,11.3,0.0,0.0,0,1015.7,0,1,"",90
"2023-06-26 02:54:00",12.9,11.3,0.0,0.0,0,1015.7,0,1,"",90
"2023-06-26 02:55:00",12.8,11.2,0.0,0.0,0,1015.8,0,2,"",90
"2023-06-26 02:56:00",12.9,11.3,0.0,0.0,0,1015.8,0,1,"",90
"2023-06-26 02:57:00",12.9,11.3,0.0,0.0,0,1015.8,0,1,"",90
"2023-06-26 02:58:00",12.9,11.3,0.0,0.0,0,1015.8,0,1,"",90
"2023-06-26 02:59:00",12.9,11.3,0.0,0.0,0,1015.8,0,1,"",90
"2023-06-26 03:00:00",12.8,11.2,0.0,0.0,0,1015.8,0,1,"",90
"2023-06-26 03:01:00",12.8,11.2,0.0,0.0,0,1015.8,1,1,"",90
"2023-06-26 03:02:00",12.8,11.2,0.0,0.0,0,1015.8,0,1,"",90
"2023-06-26 03:03:00",12.8,11.2,0.0,0.0,0,1015.8,1,1,"",90
"2023-06-26 03:04:00",12.7,11.1,0.0,0.0,0,1015.8,0,1,"",90
"2023-06-26 03:05:00",12.7,11.1,0.0,0.0,0,1015.8,0,1,"",90
"2023-06-26 03:06:00",12.7,11.1,0.0,0.0,0,1015.8,0,1,"",90
"2023-06-26 03:07:00",12.7,11.1,0.0,0.0,0,1015.8,0,1,"",90
"2023-06-26 03:08:00",12.7,11.1,0.0,0.0,0,1015.8,0,1,"",90
"2023-06-26 03:09:00",12.7,11.3,0.0,0.0,0,1015.9,0,1,"",91
"2023-06-26 03:10:00",12.7,11.3,0.0,0.0,0,1015.9,0,1,"",91
"2023-06-26 03:11:00",12.6,11.2,0.0,0.0,0,1015.9,0,1,"",91
"2023-06-26 03:12:00",12.6,11.2,0.0,0.0,0,1015.9,0,1,"",91
"2023-06-26 03:13:00",12.6,11.2,0.0,0.0,0,1015.9,0,1,"",91
"2023-06-26 03:14:00",12.6,11.2,0.0,0.0,0,1016.0,0,1,"",91
"2023-06-26 03:15:00",12.6,11.2,0.0,0.0,0,1016.0,1,1,"",91
"2023-06-26 03:16:00",12.6,11.2,0.0,0.0,0,1016.0,0,1,"",91
"2023-06-26 03:17:00",12.5,11.1,0.0,0.0,0,1016.0,0,1,"",91
"2023-06-26 03:18:00",12.6,11.2,0.0,0.0,0,1016.0,0,1,"",91
"2023-06-26 03:19:00",12.6,11.2,0.0,0.0,0,1016.0,0,1,"",91
"2023-06-26 03:20:00",12.6,11.2,0.0,0.0,0,1016.0,0,1,"",91
"2023-06-26 03:21:00",12.6,11.2,0.0,0.0,0,1015.9,0,1,"",91
"2023-06-26 03:22:00",12.5,11.1,0.0,0.0,0,1015.9,1,1,"",91
"2023-06-26 03:23:00",12.5,11.1,0.0,0.0,0,1016.0,0,1,"",91
"2023-06-26 03:24:00",12.5,11.1,0.0,0.0,0,1016.0,0,1,"",91
"2023-06-26 03:25:00",12.5,11.1,0.0,0.0,0,1016.0,0,1,"",91
"2023-06-26 03:26:00",12.4,11.0,0.0,0.0,0,1016.0,0,1,"",91
"2023-06-26 03:27:00",12.4,11.0,0.0,0.0,0,1016.0,0,0,"",91
"2023-06-26 03:28:00",12.4,11.0,0.0,0.0,0,1015.9,0,0,"",91
"2023-06-26 03:29:00",12.4,11.0,0.0,0.0,0,1015.9,0,1,"",91
"2023-06-26 03:30:00",12.4,11.0,0.0,0.0,0,1015.9,0,1,"",91
"2023-06-26 03:31:00",12.4,11.0,0.0,0.0,0,1016.0,1,1,"",91
"2023-06-26 03:32:00",12.4,11.0,0.0,0.0,0,1015.9,0,1,"",91
"2023-06-26 03:33:00",12.3,10.9,0.0,0.0,0,1016.0,0,1,"",91
"2023-06-26 03:34:00",12.4,11.0,0.0,0.0,0,1016.0,0,0,"",91
"2023-06-26 03:35:00",12.4,11.0,0.0,0.0,0,1016.0,0,1,"",91
"2023-06-26 03:36:00",12.4,11.0,0.0,0.0,0,1016.0,0,1,"",91
"2023-06-26 03:37:00",12.4,11.0,0.0,0.0,0,1016.0,0,1,"",91
"2023-06-26 03:38:00",12.3,10.9,0.0,0.0,0,1016.0,0,1,"",91
"2023-06-26 03:39:00",12.3,10.9,0.0,0.0,0,1016.0,0,1,"",91
"2023-06-26 03:40:00",12.3,10.9,0.0,0.0,0,1016.0,0,1,"",91
"2023-06-26 03:41:00",12.3,10.9,0.0,0.0,0,1016.0,1,1,"",91
"2023-06-26 03:42:00",12.3,10.9,0.0,0.0,0,1016.0,0,1,"",91
"2023-06-26 03:43:00",12.3,10.9,0.0,0.0,0,1016.0,0,1,"",91
"2023-06-26 03:44:00",12.3,11.0,0.0,0.0,0,1016.0,0,1,"",92
"2023-06-26 03:45:00",12.3,11.0,0.0,0.0,0,1016.0,0,1,"",92
"2023-06-26 03:46:00",12.3,10.9,0.0,0.0,0,1016.0,0,1,"",91
"2023-06-26 03:47:00",12.3,10.9,0.0,0.0,0,1016.0,0,1,"",91
"2023-06-26 03:48:00",12.3,10.9,0.0,0.0,0,1016.0,1,1,"",91
"2023-06-26 03:49:00",12.3,10.9,0.0,0.0,0,1016.1,1,2,"",91
"2023-06-26 03:50:00",12.2,10.8,0.0,0.0,0,1016.1,1,1,"",91
"2023-06-26 03:51:00",12.2,10.8,0.0,0.0,0,1016.1,1,2,"",91
"2023-06-26 03:52:00",12.2,10.8,0.0,0.0,0,1016.1,0,1,"",91
"2023-06-26 03:53:00",12.2,10.8,0.0,0.0,0,1016.1,0,1,"",91
"2023-06-26 03:54:00",12.2,10.8,0.0,0.0,0,1016.1,1,1,"",91
"2023-06-26 03:55:00",12.2,10.9,0.0,0.0,0,1016.1,1,1,"",92
"2023-06-26 03:56:00",12.2,10.9,0.0,0.0,0,1016.1,1,1,"",92
"2023-06-26 03:57:00",12.2,10.9,0.0,0.0,0,1016.1,1,1,"",92
"2023-06-26 03:58:00",12.2,10.8,0.0,0.0,0,1016.1,1,1,"",91
"2023-06-26 03:59:00",12.2,10.8,0.0,0.0,0,1016.1,1,1,"",91
"2023-06-26 04:00:00",12.2,10.9,0.0,0.0,0,1016.1,1,1,"",92
"2023-06-26 04:01:00",12.2,10.9,0.0,0.0,0,1016.0,0,1,"",92
"2023-06-26 04:02:00",12.2,10.9,0.0,0.0,0,1016.0,0,1,"",92
"2023-06-26 04:03:00",12.2,10.9,0.0,0.0,0,1016.1,0,1,"",92
"2023-06-26 04:04:00",12.2,10.9,0.0,0.0,0,1016.1,0,1,"",92
"2023-06-26 04:05:00",12.2,10.9,0.0,0.0,0,1016.1,0,1,"",92
"2023-06-26 04:06:00",12.2,10.9,0.0,0.0,0,1016.1,0,1,"",92
"2023-06-26 04:07:00",12.2,10.9,0.0,0.0,0,1016.1,0,1,"",92
"2023-06-26 04:08:00",12.1,10.8,0.0,0.0,0,1016.1,0,1,"",92
"2023-06-26 04:09:00",12.1,10.8,0.0,0.0,0,1016.1,0,0,"",92
"2023-06-26 04:10:00",12.1,10.8,0.0,0.0,0,1016.1,0,1,"",92
"2023-06-26 04:11:00",12.2,10.9,0.0,0.0,0,1016.1,0,0,"",92
"2023-06-26 04:12:00",12.2,10.9,0.0,0.0,0,1016.2,0,0,"",92
"2023-06-26 04:13:00",12.2,10.9,0.0,0.0,0,1016.2,0,1,"",92
"2023-06-26 04:14:00",12.1,10.8,0.0,0.0,0,1016.1,1,2,"",92
"2023-06-26 04:15:00",12.1,10.8,0.0,0.0,0,1016.1,1,2,"",92
"2023-06-26 04:16:00",12.1,10.8,0.0,0.0,0,1016.2,1,2,"",92
"2023-06-26 04:17:00",12.1,10.8,0.0,0.0,0,1016.2,1,1,"",92
"2023-06-26 04:18:00",12.0,10.7,0.0,0.0,0,1016.2,0,2,"",92
"2023-06-26 04:19:00",12.0,10.7,0.0,0.0,0,1016.2,0,1,"",92
"2023-06-26 04:20:00",12.0,10.7,0.0,0.0,0,1016.2,0,1,"",92
"2023-06-26 04:21:00",12.0,10.7,0.0,0.0,0,1016.1,0,1,"",92
"2023-06-26 04:22:00",12.0,10.7,0.0,0.0,0,1016.2,0,1,"",92
"2023-06-26 04:23:00",12.0,10.7,0.0,0.0,0,1016.1,0,1,"",92
"2023-06-26 04:24:00",12.0,10.7,0.0,0.0,0,1016.2,0,1,"",92
"2023-06-26 04:25:00",12.0,10.7,0.0,0.0,0,1016.2,0,1,"",92
"2023-06-26 04:26:00",12.0,10.7,0.0,0.0,0,1016.2,0,0,"",92
"2023-06-26 04:27:00",12.0,10.7,0.0,0.0,0,1016.2,0,1,"",92
"2023-06-26 04:28:00",12.1,10.8,0.0,0.0,0,1016.2,0,0,"",92
"2023-06-26 04:29:00",12.1,10.8,0.0,0.0,0,1016.3,0,1,"",92
"2023-06-26 04:30:00",12.1,10.8,0.0,0.0,0,1016.3,0,1,"",92
"2023-06-26 04:31:00",12.0,10.7,0.0,0.0,0,1016.3,0,1,"",92
"2023-06-26 04:32:00",12.0,10.7,0.0,0.0,0,1016.3,0,1,"",92
"2023-06-26 04:33:00",12.0,10.7,0.0,0.0,0,1016.3,0,1,"",92
"2023-06-26 04:34:00",11.9,10.6,0.0,0.0,0,1016.3,0,1,"",92
"2023-06-26 04:35:00",11.9,10.6,0.0,0.0,0,1016.3,0,1,"",92
"2023-06-26 04:36:00",11.9,10.6,0.0,0.0,0,1016.3,0,1,"",92
"2023-06-26 04:37:00",11.9,10.6,0.0,0.0,0,1016.3,0,0,"",92
"2023-06-26 04:38:00",11.9,10.6,0.0,0.0,0,1016.3,0,1,"",92
"2023-06-26 04:39:00",11.9,10.6,0.0,0.0,0,1016.3,0,1,"",92
"2023-06-26 04:40:00",11.9,10.6,0.0,0.0,0,1016.3,0,1,"",92
"2023-06-26 04:41:00",11.9,10.6,0.0,0.0,0,1016.4,0,1,"",92
"2023-06-26 04:42:00",11.9,10.6,0.0,0.0,0,1016.4,0,0,"",92
"2023-06-26 04:43:00",11.9,10.6,0.0,0.0,0,1016.4,0,1,"",92
"2023-06-26 04:44:00",11.9,10.6,0.0,0.0,0,1016.3,0,1,"",92
"2023-06-26 04:45:00",11.9,10.6,0.0,0.0,0,1016.3,0,1,"",92
"2023-06-26 04:46:00",11.9,10.6,0.0,0.0,0,1016.3,0,1,"",92
"2023-06-26 04:47:00",11.9,10.6,0.0,0.0,0,1016.4,0,1,"",92
"2023-06-26 04:48:00",11.9,10.6,0.0,0.0,0,1016.4,0,1,"",92
"2023-06-26 04:49:00",11.9,10.6,0.0,0.0,0,1016.4,0,1,"",92
"2023-06-26 04:50:00",11.8,10.5,0.0,0.0,0,1016.4,0,1,"",92
"2023-06-26 04:51:00",11.8,10.5,0.0,0.0,0,1016.4,1,1,"",92
"2023-06-26 04:52:00",11.8,10.5,0.0,0.0,0,1016.3,0,1,"",92
"2023-06-26 04:53:00",11.8,10.5,0.0,0.0,0,1016.3,0,1,"",92
"2023-06-26 04:54:00",11.8,10.5,0.0,0.0,0,1016.3,0,2,"",92
"2023-06-26 04:55:00",11.8,10.5,0.0,0.0,0,1016.3,0,1,"",92
"2023-06-26 04:56:00",11.8,10.5,0.0,0.0,0,1016.3,1,2,"",92
"2023-06-26 04:57:00",11.8,10.5,0.0,0.0,0,1016.2,1,1,"",92
"2023-06-26 04:58:00",11.8,10.5,0.0,0.0,0,1016.2,1,1,"",92
"2023-06-26 04:59:00",11.8,10.5,0.0,0.0,0,1016.2,0,1,"",92
"2023-06-26 05:00:00",11.8,10.5,0.0,0.0,0,1016.2,0,1,"",92
"2023-06-26 05:01:00",11.8,10.5,0.0,0.0,0,1016.2,0,1,"",92
"2023-06-26 05:02:00",11.8,10.5,0.0,0.0,0,1016.2,1,2,"",92
"2023-06-26 05:03:00",11.8,10.5,0.0,0.0,5,1016.2,1,2,"",92
"2023-06-26 05:04:00",11.8,10.5,0.0,0.0,5,1016.2,1,2,"",92
"2023-06-26 05:05:00",11.8,10.5,0.0,0.0,5,1016.3,0,1,"",92
"2023-06-26 05:06:00",11.8,10.5,0.0,0.0,5,1016.3,0,1,"",92
"2023-06-26 05:07:00",11.8,10.5,0.0,0.0,5,1016.4,0,1,"",92
"2023-06-26 05:08:00",11.8,10.5,0.0,0.0,5,1016.4,1,2,"",92
"2023-06-26 05:09:00",11.8,10.5,0.0,0.0,5,1016.4,1,2,"",92
"2023-06-26 05:10:00",11.8,10.5,0.0,0.0,5,1016.4,1,1,"",92
"2023-06-26 05:11:00",11.8,10.7,0.0,0.0,5,1016.4,0,1,"",93
"2023-06-26 05:12:00",11.9,10.8,0.0,0.0,7,1016.4,0,1,"",93
"2023-06-26 05:13:00",11.9,10.8,0.0,0.0,7,1016.4,0,1,"",93
"2023-06-26 05:14:00",11.9,10.6,0.0,0.0,7,1016.4,1,2,"",92
"2023-06-26 05:15:00",11.9,10.6,0.0,0.0,7,1016.4,0,1,"",92
"2023-06-26 05:16:00",12.0,10.7,0.0,0.0,7,1016.4,0,0,"",92
"2023-06-26 05:17:00",11.9,10.6,0.0,0.0,7,1016.5,1,2,"",92
"2023-06-26 05:18:00",11.9,10.6,0.0,0.0,7,1016.5,0,1,"",92
"2023-06-26 05:19:00",11.9,10.6,0.0,0.0,7,1016.5,1,1,"",92
"2023-06-26 05:20:00",11.9,10.6,0.0,0.0,9,1016.4,0,1,"",92
"2023-06-26 05:21:00",11.9,10.6,0.0,0.0,9,1016.4,0,1,"",92
"2023-06-26 05:22:00",12.0,10.7,0.0,0.0,9,1016.4,1,1,"",92
"2023-06-26 05:23:00",11.9,10.6,0.0,0.0,9,1016.4,0,1,"",92
"2023-06-26 05:24:00",11.9,10.6,0.0,0.0,9,1016.4,0,1,"",92
"2023-06-26 05:25:00",12.0,10.9,0.0,0.0,9,1016.4,0,1,"",93
"2023-06-26 05:26:00",12.0,10.7,0.0,0.0,9,1016.4,1,1,"",92
"2023-06-26 05:27:00",12.0,10.7,0.0,0.0,11,1016.4,1,2,"",92
"2023-06-26 05:28:00",12.0,10.7,0.0,0.0,11,1016.4,1,2,"",92
"2023-06-26 05:29:00",11.9,10.6,0.0,0.0,11,1016.4,1,2,"",92
"2023-06-26 05:30:00",12.0,10.7,0.0,0.0,11,1016.5,1,2,"",92
"2023-06-26 05:31:00",12.0,10.9,0.0,0.0,11,1016.4,1,2,"",93
"2023-06-26 05:32:00",12.0,10.7,0.0,0.0,11,1016.4,0,2,"",92
"2023-06-26 05:33:00",12.0,10.7,0.0,0.0,12,1016.4,0,1,"",92
"2023-06-26 05:34:00",12.0,10.9,0.0,0.0,12,1016.5,0,2,"",93
"2023-06-26 05:35:00",12.0,10.9,0.0,0.0,12,1016.4,1,2,"",93
"2023-06-26 05:36:00",12.0,10.9,0.0,0.0,12,1016.5,1,2,"",93
"2023-06-26 05:37:00",12.1,11.0,0.0,0.0,12,1016.4,1,1,"",93
"2023-06-26 05:38:00",12.1,11.0,0.0,0.0,12,1016.5,0,1,"",93
"2023-06-26 05:39:00",12.1,11.0,0.0,0.0,12,1016.6,0,1,"",93
"2023-06-26 05:40:00",12.1,11.0,0.0,0.0,12,1016.6,1,2,"",93
"2023-06-26 05:41:00",12.1,11.0,0.0,0.0,12,1016.6,1,1,"",93
"2023-06-26 05:42:00",12.1,11.0,0.0,0.0,12,1016.7,1,1,"",93
"2023-06-26 05:43:00",12.1,11.0,0.0,0.0,14,1016.7,1,1,"",93
"2023-06-26 05:44:00",12.2,11.1,0.0,0.0,14,1016.7,2,4,"",93
"2023-06-26 05:45:00",12.1,11.0,0.0,0.0,14,1016.8,1,2,"",93
"2023-06-26 05:46:00",12.2,11.1,0.0,0.0,14,1016.8,0,2,"",93
"2023-06-26 05:47:00",12.2,11.1,0.0,0.0,14,1016.8,1,2,"",93
"2023-06-26 05:48:00",12.3,11.2,0.0,0.0,14,1016.8,1,2,"",93
"2023-06-26 05:49:00",12.3,11.2,0.0,0.0,16,1016.9,0,2,"",93
"2023-06-26 05:50:00",12.3,11.2,0.0,0.0,16,1016.8,0,1,"",93
"2023-06-26 05:51:00",12.3,11.2,0.0,0.0,16,1016.9,1,1,"",93
"2023-06-26 05:52:00",12.3,11.2,0.0,0.0,16,1016.9,1,2,"",93
"2023-06-26 05:53:00",12.3,11.2,0.0,0.0,16,1016.9,0,1,"",93
"2023-06-26 05:54:00",12.3,11.2,0.0,0.0,16,1016.8,1,2,"",93
"2023-06-26 05:55:00",12.3,11.2,0.0,0.0,16,1016.9,1,2,"",93
"2023-06-26 05:56:00",12.4,11.3,0.0,0.0,18,1016.9,1,2,"",93
"2023-06-26 05:57:00",12.4,11.3,0.0,0.0,18,1016.9,1,2,"",93
"2023-06-26 05:58:00",12.4,11.3,0.0,0.0,18,1016.8,1,2,"",93
"2023-06-26 05:59:00",12.4,11.3,0.0,0.0,18,1016.9,1,2,"",93
"2023-06-26 06:00:00",12.4,11.3,0.0,0.0,18,1016.8,1,2,"",93
"2023-06-26 06:01:00",12.4,11.3,0.0,0.0,18,1016.8,1,2,"",93
"2023-06-26 06:02:00",12.4,11.3,0.0,0.0,19,1016.8,1,2,"",93
"2023-06-26 06:03:00",12.5,11.4,0.0,0.0,19,1016.8,1,2,"",93
"2023-06-26 06:04:00",12.6,11.5,0.0,0.0,19,1016.8,0,0,"",93
"2023-06-26 06:05:00",12.6,11.5,0.0,0.0,19,1016.8,0,1,"",93
"2023-06-26 06:06:00",12.6,11.5,0.0,0.0,19,1016.8,1,1,"",93
"2023-06-26 06:07:00",12.7,11.6,0.0,0.0,19,1016.8,1,2,"",93
"2023-06-26 06:08:00",12.7,11.6,0.0,0.0,19,1016.8,1,2,"",93
"2023-06-26 06:09:00",12.7,11.6,0.0,0.0,19,1016.8,1,1,"",93
"2023-06-26 06:10:00",12.7,11.6,0.0,0.0,21,1016.8,0,2,"",93
"2023-06-26 06:11:00",12.7,11.6,0.0,0.0,21,1016.9,1,2,"",93
"2023-06-26 06:12:00",12.8,11.7,0.0,0.0,21,1016.8,1,2,"",93
"2023-06-26 06:13:00",12.8,11.7,0.0,0.0,21,1016.9,1,3,"",93
"2023-06-26 06:14:00",12.8,11.7,0.0,0.0,21,1016.8,0,2,"",93
"2023-06-26 06:15:00",12.9,11.8,0.0,0.0,21,1016.9,0,1,"",93
"2023-06-26 06:16:00",12.9,11.8,0.0,0.0,21,1016.9,0,1,"",93
"2023-06-26 06:17:00",13.0,11.9,0.0,0.0,21,1016.9,1,2,"",93
"2023-06-26 06:18:00",13.0,11.9,0.0,0.0,23,1016.9,1,2,"",93
"2023-06-26 06:19:00",13.1,12.0,0.0,0.0,23,1017.0,1,2,"",93
"2023-06-26 06:20:00",13.1,12.0,0.0,0.0,23,1017.0,1,2,"",93
"2023-06-26 06:21:00",13.1,12.0,0.0,0.0,23,1017.0,0,1,"",93
"2023-06-26 06:22:00",13.1,12.0,0.0,0.0,25,1017.0,0,1,"",93
"2023-06-26 06:23:00",13.1,12.0,0.0,0.0,25,1017.0,0,1,"",93
"2023-06-26 06:24:00",13.2,12.1,0.0,0.0,25,1017.1,0,1,"",93
"2023-06-26 06:25:00",13.2,12.1,0.0,0.0,25,1017.1,1,2,"",93
"2023-06-26 06:26:00",13.2,11.9,0.0,0.0,25,1017.1,1,3,"",92
"2023-06-26 06:27:00",13.2,11.9,0.0,0.0,25,1017.0,1,2,"",92
"2023-06-26 06:28:00",13.2,11.9,0.0,0.0,26,1017.1,0,1,"",92
"2023-06-26 06:29:00",13.3,12.2,0.0,0.0,26,1017.1,2,3,"",93
"2023-06-26 06:30:00",13.3,12.0,0.0,0.0,26,1017.1,1,2,"",92
"2023-06-26 06:31:00",13.4,12.1,0.0,0.0,26,1017.1,1,2,"",92
"2023-06-26 06:32:00",13.4,12.1,0.0,0.0,28,1017.1,1,2,"",92
"2023-06-26 06:33:00",13.5,12.2,0.0,0.0,30,1017.0,1,2,"",92
"2023-06-26 06:34:00",13.5,12.2,0.0,0.0,30,1017.0,2,3,"",92
"2023-06-26 06:35:00",13.5,12.2,0.0,0.0,32,1017.1,1,2,"",92
"2023-06-26 06:36:00",13.6,12.3,0.0,0.0,33,1017.2,1,2,"",92
"2023-06-26 06:37:00",13.6,12.3,0.0,0.0,32,1017.2,2,4,"",92
"2023-06-26 06:38:00",13.7,12.4,0.0,0.0,32,1017.2,1,3,"",92
"2023-06-26 06:39:00",13.6,12.3,0.0,0.0,33,1017.2,0,1,"",92
"2023-06-26 06:40:00",13.7,12.4,0.0,0.0,33,1017.3,1,3,"",92
"2023-06-26 06:41:00",13.8,12.5,0.0,0.0,33,1017.2,1,2,"",92
"2023-06-26 06:42:00",13.8,12.5,0.0,0.0,33,1017.2,1,1,"",92